Location: Brachbach
(49.1847°N, 9.7240°E)
Time: 06:43:13
(UTC+00:00)

PCSat - Pass Details

Date: 19 March 2026
Orbit: 780 x 790 km, 67.1° (Epoch: 13 April)

Event Time Altitude Azimuth Distance (km) Brightness Sun altitude
Exits shadow 21:50:58 14° 27° (NNE) 2,099 12.0 -36.8°
Drops below altitude 10° 21:51:42 10° 29° (NNE) 2,363 12.3 -36.8°
Sets 21:54:12 0° 34° (NE) 3,296 13.1 -37.0°
